Погода в Узнезе

Россия / Республика Алтай     51°31′45″N   85°56′01″E
темп.,
°C
ветер,
м/с
пор.,
м/с
влажн.,
%
обл.,
%
осадки,
мм/ч
давл.,
гПа
погр.,
м
18 апреля, вс
вс1801:00−1вюв019078 0.3 1022158
04:00−3ю119530 0.0 102224
07:00−2ююв119427 0.0 1022101
10:00+4сз117221 0.0 1019507
13:00+7с326149 0.0 1016958
16:00+8с335850 0.0 10151238
19:00+8ссв115929 0.0 101421
22:00+2ююв357812 0.0 101577
19 апреля, пн
пн1901:00+4ю496519 0.0 1012160
04:00+3ююв476974 0.0 1010112
07:00+5ююз356494 0.0 100897
10:000ссз3599100 3.8 1015277
13:00−1ссв3486100 6.9 1019727
16:00−3с3486100 1.3 1021660
19:00−4с2390100 2.0 1022470
22:00−5с1294100 0.7 1023267
20 апреля, вт
вт2001:00−5ссз1293100 1.1 1022236
04:00−6ссз3494100 0.9 1022429
07:00−8с2490100 1.4 1023446
10:00−6с3376100 0.3 10231041
13:00−5ссз3374100 0.6 10221049
16:00−4ссз3370100 0.3 10221226
19:00−5с3468100 0.5 1023981
22:00−10ссв119591 0.0 102711
21 апреля, ср
ср2101:00−10вюв009293 0.1 102715
04:00−11ююв119746 0.0 102716
07:00−11юв229116 0.0 102777
10:00−4ю116299 0.0 1025844
13:00−1сз1151100 0.0 10221269
16:000ссз2247100 0.0 10211433
19:00−2с2363100 0.0 1022897
22:00−6ссз1192100 0.0 102533
22 апреля, чт
чт2201:00−5с0184100 0.1 102592
04:00−5ссз1194100 0.5 1026192
07:00−5ссз129297 0.7 1028216
10:00−3ссз2270100 0.1 10291065
13:00−1с3466100 0.4 10291410
16:000с3559100 0.4 10301479
19:00−2с3686100 1.2 1032688
22:00−3ссз259699 0.6 1035321